Location: Unspecified
(0.0000°N, 0.0000°E)
Time: 18:49:47
(UTC+00:00)

Courier 1B - Visible Passes

Search period start: 10 August 2020 00:00
Search period end: 20 August 2020 00:00
Orbit: 962 x 1209 km, 28.3° (Epoch: 09 August)

Date Brightness Start Highest point End Pass type
(mag) Time Alt. Az. Time Alt. Az. Time Alt. Az.
10 Aug 9.0 03:37:30 26° SE 03:37:30 26° SE 03:40:22 10° SE visible
10 Aug 9.1 05:24:26 11° WSW 05:28:19 17° SSW 05:32:37 10° SSE visible
11 Aug 8.8 04:34:35 22° SSW 04:34:35 22° SSW 04:39:27 10° SSE visible
12 Aug 9.5 03:44:39 16° SSE 03:44:39 16° SSE 03:46:09 10° SSE visible
13 Aug 9.4 04:41:31 13° SSW 04:41:31 13° SSW 04:44:00 10° S visible
17 Aug 9.9 20:20:32 10° N 20:22:19 11° NNE 20:22:19 11° NNE visible
18 Aug 10.1 21:17:58 10° NNW 21:18:41 12° NNW 21:18:41 12° NNW visible
19 Aug 9.5 20:24:38 10° NNW 20:28:12 19° N 20:28:12 19° N visible
